Weather History for Altus, OK

Change the Weather History Date:

Monday, December 16, 2013

  Actual Average (KLTS) Record (KLTS)
Temperature  
Mean Temperature 47 °F -  
Max Temperature 68 °F 50 °F 66 °F (2002)
Min Temperature 26 °F 26 °F 12 °F (1996)
Degree Days  
Heating Degree Days 18    
Moisture  
Dew Point 29 °F    
Average Humidity 60    
Maximum Humidity 89    
Minimum Humidity 24    
Precipitation  
Precipitation 0.00 in - - ()
Sea Level Pressure  
Sea Level Pressure 30.16 in    
Wind  
Wind Speed 2 mph (East)    
Max Wind Speed 8 mph    
Max Gust Speed -    
Visibility 10 miles    
Events      
Averages and records for this station are not official NWS values.
T = Trace of Precipitation, MM = Missing Value Source: NWS Daily Summary

Daily Weather History Graph

Daily Weather History Graph

Search for Another Location

Airport:

Trip Planner

Search our weather history database for the weather conditions in past years. The results will help you decide how hot, cold, wet, or windy it might be!

Date:

Astronomy

Dec. 16, 2013 Rise Set
Actual Time 7:38 AM CST 5:28 PM CST
Civil Twilight 7:09 AM CST 5:56 PM CST
Nautical Twilight 6:38 AM CST 6:27 PM CST
Astronomical Twilight 6:07 AM CST 6:58 PM CST
Moon 5:17 PM CST (12/16) 6:49 AM CST (12/16)
Length of Visible Light 10h 46m
Length of Day
9h 50m
Full, 100% of the Moon is Illuminated
Dec 16
Full
Dec 17
Full
Dec 25
Last Quarter
Jan 1
New
Jan 7
First Quarter

Hourly Weather History & Observations

Time (CST) Temp. Windchill Dew Point Humidity Pressure Visibility Wind Dir Wind Speed Gust Speed Precip Events Conditions
12:15 AM 41.0 °F - 29.1 °F 63% 30.18 in 10.0 mi Calm Calm - N/A   Clear
12:35 AM 38.8 °F - 28.9 °F 68% 30.18 in 10.0 mi Calm Calm - N/A   Clear
12:55 AM 37.8 °F - 29.3 °F 72% 30.17 in 10.0 mi Calm Calm - N/A   Clear
1:15 AM 38.5 °F - 29.1 °F 69% 30.16 in 10.0 mi Calm Calm - N/A   Clear
1:35 AM 37.4 °F 34.9 °F 28.8 °F 71% 30.16 in 10.0 mi South 3.5 mph - N/A   Clear
1:55 AM 35.6 °F 31.7 °F 28.4 °F 75% 30.16 in 10.0 mi SSW 4.6 mph - N/A   Clear
2:15 AM 34.7 °F - 28.0 °F 77% 30.16 in 10.0 mi Calm Calm - N/A   Clear
2:35 AM 35.4 °F - 28.4 °F 76% 30.16 in 10.0 mi Calm Calm - N/A   Clear
2:55 AM 33.6 °F - 27.7 °F 79% 30.15 in 10.0 mi Calm Calm - N/A   Clear
3:15 AM 32.0 °F - 26.6 °F 80% 30.16 in 10.0 mi Calm Calm - N/A   Clear
3:35 AM 32.0 °F - 27.3 °F 83% 30.16 in 10.0 mi Calm Calm - N/A   Clear
3:55 AM 30.7 °F - 26.4 °F 84% 30.16 in 10.0 mi Calm Calm - N/A   Clear
4:15 AM 29.7 °F - 26.2 °F 87% 30.16 in 10.0 mi Calm Calm - N/A   Clear
4:35 AM 28.4 °F 24.6 °F 25.2 °F 88% 30.15 in 10.0 mi SW 3.5 mph - N/A   Clear
4:55 AM 28.8 °F 25.0 °F 25.3 °F 87% 30.15 in 10.0 mi West 3.5 mph - N/A   Clear
5:15 AM 26.8 °F 21.4 °F 23.9 °F 89% 30.15 in 10.0 mi NW 4.6 mph - N/A   Clear
5:35 AM 27.0 °F 23.0 °F 23.4 °F 86% 30.15 in 10.0 mi NNW 3.5 mph - N/A   Clear
5:55 AM 27.5 °F 22.2 °F 24.4 °F 88% 30.16 in 10.0 mi NNW 4.6 mph - N/A   Clear
6:15 AM 27.0 °F 21.6 °F 23.9 °F 88% 30.16 in 10.0 mi NNW 4.6 mph - N/A   Clear
6:35 AM 28.2 °F 23.1 °F 24.6 °F 86% 30.16 in 10.0 mi North 4.6 mph - N/A   Clear
6:55 AM 27.7 °F 21.3 °F 23.9 °F 86% 30.15 in 10.0 mi North 5.8 mph - N/A   Clear
7:15 AM 28.8 °F 21.7 °F 24.8 °F 85% 30.16 in 10.0 mi North 6.9 mph - N/A   Clear
7:35 AM 28.8 °F 21.7 °F 24.8 °F 85% 30.16 in 10.0 mi NNW 6.9 mph - N/A   Clear
7:55 AM 28.9 °F 23.9 °F 24.1 °F 82% 30.17 in 10.0 mi North 4.6 mph - N/A   Clear
8:15 AM 30.0 °F - 25.5 °F 83% 30.17 in 10.0 mi Calm Calm - N/A   Clear
8:35 AM 31.1 °F 27.7 °F 26.6 °F 83% 30.17 in 10.0 mi West 3.5 mph - N/A   Clear
8:55 AM 32.0 °F - 27.3 °F 83% 30.18 in 10.0 mi Calm Calm - N/A   Clear
9:15 AM 34.9 °F - 28.8 °F 78% 30.18 in 10.0 mi Calm Calm - N/A   Clear
9:35 AM 38.8 °F - 29.5 °F 69% 30.19 in 10.0 mi Calm Calm - N/A   Clear
9:55 AM 42.3 °F - 29.7 °F 61% 30.19 in 10.0 mi Calm Calm - N/A   Clear
10:15 AM 45.0 °F 42.6 °F 31.6 °F 60% 30.20 in 10.0 mi NW 4.6 mph - N/A   Clear
10:35 AM 46.6 °F - 31.3 °F 55% 30.20 in 10.0 mi North 5.8 mph - N/A   Clear
10:55 AM 49.1 °F - 31.5 °F 51% 30.19 in 10.0 mi NNW 3.5 mph - N/A   Clear
11:15 AM 51.6 °F - 30.9 °F 45% 30.18 in 10.0 mi Calm Calm - N/A   Clear
11:35 AM 54.0 °F - 28.4 °F 37% 30.18 in 10.0 mi Calm Calm - N/A   Clear
11:55 AM 56.8 °F - 28.9 °F 34% 30.17 in 10.0 mi Calm Calm - N/A   Clear
12:15 PM 59.0 °F - 30.4 °F 34% 30.16 in 10.0 mi Calm Calm - N/A   Clear
12:35 PM 59.9 °F - 29.3 °F 31% 30.16 in 10.0 mi Calm Calm - N/A   Clear
12:55 PM 61.5 °F - 30.2 °F 31% 30.14 in 10.0 mi Calm Calm - N/A   Clear
1:15 PM 61.9 °F - 28.8 °F 29% 30.14 in 10.0 mi Calm Calm - N/A   Clear
1:35 PM 62.6 °F - 30.2 °F 30% 30.13 in 10.0 mi Calm Calm - N/A   Clear
1:55 PM 63.9 °F - 31.8 °F 30% 30.14 in 10.0 mi SSW 3.5 mph - N/A   Clear
2:15 PM 64.8 °F - 31.8 °F 29% 30.13 in 10.0 mi South 4.6 mph - N/A   Clear
2:35 PM 65.5 °F - 31.3 °F 28% 30.12 in 10.0 mi South 4.6 mph - N/A   Clear
2:55 PM 66.4 °F - 30.9 °F 27% 30.12 in 10.0 mi Calm Calm - N/A   Clear
3:15 PM 67.5 °F - 30.2 °F 25% 30.13 in 10.0 mi South 4.6 mph - N/A   Clear
3:35 PM 68.0 °F - 29.8 °F 24% 30.13 in 10.0 mi South 4.6 mph - N/A   Clear
3:55 PM 68.0 °F - 30.6 °F 25% 30.13 in 10.0 mi SSE 4.6 mph - N/A   Clear
4:15 PM 67.3 °F - 31.5 °F 26% 30.13 in 10.0 mi SSE 6.9 mph - N/A   Clear
4:35 PM 65.5 °F - 32.9 °F 30% 30.13 in 10.0 mi SSE 5.8 mph - N/A   Clear
4:55 PM 62.4 °F - 32.9 °F 33% 30.14 in 10.0 mi ESE 4.6 mph - N/A   Clear
5:15 PM 59.7 °F - 34.9 °F 39% 30.14 in 10.0 mi East 5.8 mph - N/A   Clear
5:35 PM 57.2 °F - 32.7 °F 40% 30.14 in 10.0 mi ESE 6.9 mph - N/A   Clear
5:55 PM 54.9 °F - 33.1 °F 44% 30.15 in 10.0 mi East 6.9 mph - N/A   Clear
6:15 PM 54.0 °F - 32.9 °F 45% 30.15 in 10.0 mi ESE 8.1 mph - N/A   Clear
6:35 PM 51.6 °F - 33.3 °F 50% 30.15 in 10.0 mi ESE 6.9 mph - N/A   Clear
6:55 PM 48.9 °F - 32.5 °F 53% 30.15 in 10.0 mi ESE 6.9 mph - N/A   Clear
7:15 PM 49.8 °F - 32.0 °F 50% 30.16 in 10.0 mi East 8.1 mph - N/A   Clear
7:35 PM 47.5 °F - 31.8 °F 55% 30.16 in 10.0 mi ESE 6.9 mph - N/A   Clear
7:55 PM 48.2 °F - 32.0 °F 54% 30.17 in 10.0 mi ESE 6.9 mph - N/A   Clear
8:15 PM 46.8 °F - 31.8 °F 56% 30.17 in 10.0 mi ESE 6.9 mph - N/A   Clear
8:35 PM 46.6 °F - 31.6 °F 56% 30.18 in 10.0 mi East 8.1 mph - N/A   Clear
8:55 PM 48.4 °F - 30.7 °F 51% 30.18 in 10.0 mi East 6.9 mph - N/A   Clear
9:15 PM 47.7 °F - 30.0 °F 50% 30.18 in 10.0 mi ESE 6.9 mph - N/A   Clear
9:35 PM 47.1 °F - 29.8 °F 51% 30.18 in 10.0 mi ESE 4.6 mph - N/A   Clear
9:55 PM 46.8 °F - 29.3 °F 51% 30.18 in 10.0 mi SE 3.5 mph - N/A   Clear
10:15 PM 41.9 °F - 30.2 °F 63% 30.19 in 10.0 mi Calm Calm - N/A   Clear
10:35 PM 39.9 °F - 30.6 °F 69% 30.19 in 10.0 mi Calm Calm - N/A   Clear
10:55 PM 36.5 °F 33.9 °F 29.8 °F 77% 30.20 in 10.0 mi North 3.5 mph - N/A   Clear
11:15 PM 36.3 °F 32.5 °F 30.2 °F 78% 30.21 in 10.0 mi North 4.6 mph - N/A   Clear
11:35 PM 36.7 °F 31.2 °F 30.0 °F 77% 30.21 in 10.0 mi NNE 6.9 mph - N/A   Clear
11:55 PM 38.5 °F 34.1 °F 29.7 °F 71% 30.21 in 10.0 mi NNE 5.8 mph - N/A   Clear